User: anonymous   Login
Location: Unspecified
(0.0000°N, 0.0000°E)
Time: 01:57:49
(UTC+02:00)
Language:

YAOGAN 3 - Orbit

View from above orbital plane
View from above orbital plane
View from above satellite
View from above satellite

Ground track
Ground track

The orbit data is extracted from the following two-line orbital elements,

1 32289U 07055A   15147.50836810  .00000386  00000-0  57311-4 0  9998
2 32289 097.9635 141.9272 0001332 106.7052 253.4279 14.80459284407504
Epoch (UTC): 27 May 2015 12:12:03
Eccentricity: 0.0001332
inclination: 97.9635°
perigee height: 627 km
apogee height: 629 km
right ascension of ascending node: 141.9272°
argument of perigee: 106.7052°
revolutions per day: 14.80459284
mean anomaly at epoch: 253.4279°
orbit number at epoch: 40750

The dashed part of the orbit path shows where the satellite is in the earth's shadow,  

DLR